�������l�o���
Date,Time,MP-1(��Sv/h),MP-2(��Sv/h),MP-3(��Sv/h),MP-4(��Sv/h),MP-5(��Sv/h),MP-6(��Sv/h),MP-7(��Sv/h),MP-8(��Sv/h),����,����(m/s),���J
2017/03/31,00:00,1.024,1.660,1.123,1.971,1.358,0.547,1.000,0.930,��,7.4,��
2017/03/31,00:10,1.022,1.662,1.124,1.969,1.359,0.546,1.000,0.928,��,6.4,��
2017/03/31,00:20,1.023,1.660,1.125,1.968,1.361,0.546,1.000,0.928,��,5.7,��
2017/03/31,00:30,1.019,1.659,1.122,1.968,1.360,0.547,0.998,0.927,��,3.1,��
2017/03/31,00:40,1.022,1.660,1.121,1.971,1.360,0.547,1.000,0.929,��,1.7,��
2017/03/31,00:50,1.022,1.659,1.123,1.967,1.359,0.544,0.999,0.927,-,CALM,��
2017/03/31,01:00,1.022,1.661,1.121,1.967,1.360,0.545,0.999,0.927,�k�k��,1.1,��
2017/03/31,01:10,1.020,1.661,1.122,1.970,1.359,0.546,1.000,0.928,���k��,4.1,��
2017/03/31,01:20,1.021,1.659,1.124,1.967,1.358,0.545,1.000,0.929,���k��,5.8,��
2017/03/31,01:30,1.022,1.659,1.123,1.969,1.359,0.545,0.998,0.928,���k��,5.4,��
2017/03/31,01:40,1.020,1.662,1.125,1.968,1.356,0.545,0.998,0.928,���k��,5.6,��
2017/03/31,01:50,1.018,1.661,1.122,1.967,1.360,0.544,1.000,0.927,���k��,4.4,��
2017/03/31,02:00,1.021,1.660,1.120,1.969,1.357,0.545,0.999,0.926,��,5.1,��
2017/03/31,02:10,1.021,1.661,1.118,1.969,1.359,0.544,0.998,0.929,��,4.7,��
2017/03/31,02:20,1.019,1.661,1.122,1.968,1.360,0.544,0.997,0.929,��,4.4,��
2017/03/31,02:30,1.019,1.659,1.120,1.970,1.359,0.545,0.998,0.925,��,3.8,��
2017/03/31,02:40,1.019,1.659,1.121,1.969,1.357,0.545,0.999,0.927,��,4.7,��
2017/03/31,02:50,1.017,1.658,1.123,1.971,1.357,0.543,0.999,0.927,��,5.2,��
2017/03/31,03:00,1.018,1.662,1.120,1.967,1.359,0.545,1.001,0.927,��,5.0,��
2017/03/31,03:10,1.021,1.658,1.121,1.966,1.358,0.544,0.999,0.926,��,4.6,��
2017/03/31,03:20,1.018,1.661,1.120,1.965,1.359,0.542,0.999,0.927,��,4.3,��
2017/03/31,03:30,1.018,1.658,1.119,1.965,1.357,0.544,0.997,0.926,��,4.3,��
2017/03/31,03:40,1.018,1.660,1.120,1.967,1.357,0.545,0.998,0.927,��,4.4,��
2017/03/31,03:50,1.020,1.658,1.121,1.967,1.359,0.544,0.999,0.925,���쐼,4.0,��
2017/03/31,04:00,1.020,1.661,1.121,1.964,1.360,0.543,0.996,0.929,��,3.8,��
2017/03/31,04:10,1.020,1.660,1.120,1.965,1.358,0.544,0.996,0.928,���쐼,4.3,��
2017/03/31,04:20,1.019,1.659,1.120,1.966,1.358,0.544,0.998,0.928,��,4.4,��
2017/03/31,04:30,1.020,1.659,1.121,1.967,1.359,0.544,0.999,0.925,��,3.9,��
2017/03/31,04:40,1.018,1.660,1.117,1.967,1.359,0.544,0.998,0.926,��,4.5,��
2017/03/31,04:50,1.016,1.656,1.120,1.968,1.360,0.543,0.997,0.927,���k��,4.5,��
2017/03/31,05:00,1.017,1.661,1.120,1.967,1.360,0.543,0.997,0.926,���k��,3.8,��
2017/03/31,05:10,1.018,1.659,1.120,1.966,1.358,0.544,0.996,0.928,���k��,2.6,��
2017/03/31,05:20,1.017,1.659,1.120,1.965,1.356,0.545,0.997,0.927,���k��,2.2,��
2017/03/31,05:30,1.018,1.660,1.120,1.963,1.357,0.543,0.997,0.926,���k��,2.8,��
2017/03/31,05:40,1.021,1.661,1.120,1.964,1.357,0.542,0.999,0.926,��,3.9,��
2017/03/31,05:50,1.016,1.659,1.119,1.965,1.358,0.544,0.999,0.924,���k��,4.5,��
2017/03/31,06:00,1.017,1.660,1.120,1.968,1.356,0.543,0.997,0.926,���k��,4.9,��
2017/03/31,06:10,1.017,1.659,1.119,1.969,1.357,0.542,0.996,0.927,���k��,6.5,��
2017/03/31,06:20,1.018,1.656,1.121,1.970,1.358,0.542,0.998,0.926,���k��,8.3,��
2017/03/31,06:30,1.018,1.658,1.121,1.967,1.361,0.544,0.999,0.926,���k��,6.2,��
2017/03/31,06:40,1.016,1.661,1.121,1.965,1.360,0.542,0.998,0.927,�k��,3.3,��
2017/03/31,06:50,1.020,1.660,1.121,1.966,1.360,0.543,0.998,0.926,�k��,3.7,��
2017/03/31,07:00,1.020,1.662,1.121,1.968,1.358,0.542,0.999,0.926,���k��,4.8,��
2017/03/31,07:10,1.017,1.661,1.121,1.966,1.359,0.545,0.998,0.926,�k��,2.6,��
2017/03/31,07:20,1.018,1.660,1.121,1.966,1.360,0.543,0.999,0.926,�k��,2.3,��
2017/03/31,07:30,1.018,1.662,1.121,1.971,1.359,0.543,0.997,0.926,�k��,1.4,��
2017/03/31,07:40,1.019,1.658,1.121,1.968,1.359,0.542,0.998,0.925,�k��,1.7,��
2017/03/31,07:50,1.016,1.659,1.120,1.969,1.358,0.543,0.999,0.924,���k��,3.3,��
2017/03/31,08:00,1.019,1.657,1.118,1.968,1.357,0.542,0.999,0.927,�k��,4.1,��
2017/03/31,08:10,1.019,1.657,1.122,1.968,1.356,0.543,0.998,0.925,���k��,2.8,��
2017/03/31,08:20,1.018,1.657,1.119,1.969,1.357,0.543,1.000,0.925,���k��,3.8,��
2017/03/31,08:30,1.017,1.657,1.118,1.969,1.359,0.544,0.998,0.927,�k��,3.9,��
2017/03/31,08:40,1.019,1.656,1.118,1.969,1.358,0.544,0.999,0.925,�k��,6.2,��
2017/03/31,08:50,1.019,1.658,1.117,1.967,1.359,0.543,1.000,0.926,�k�k��,5.4,��
2017/03/31,09:00,1.019,1.656,1.117,1.969,1.358,0.543,0.999,0.927,�k��,7.8,��
2017/03/31,09:10,1.023,1.657,1.116,1.967,1.360,0.543,0.998,0.927,�k��,8.5,��
2017/03/31,09:20,1.018,1.655,1.119,1.970,1.357,0.543,0.997,0.928,�k��,6.4,��
2017/03/31,09:30,1.019,1.657,1.116,1.969,1.358,0.542,1.000,0.928,�k��,6.9,��
2017/03/31,09:40,1.020,1.656,1.117,1.969,1.357,0.542,0.996,0.927,�k��,6.5,��
2017/03/31,09:50,1.020,1.658,1.117,1.968,1.360,0.541,0.996,0.927,�k�k��,6.2,��
2017/03/31,10:00,1.020,1.659,1.116,1.968,1.358,0.540,0.998,0.927,�k�k��,6.3,��
2017/03/31,10:10,1.019,1.658,1.120,1.974,1.359,0.542,0.996,0.926,�k�k��,7.6,��
2017/03/31,10:20,1.020,1.654,1.119,1.975,1.357,0.540,0.996,0.928,�k��,6.8,��
2017/03/31,10:30,1.019,1.662,1.114,1.969,1.359,0.541,0.998,0.929,�k��,5.9,��
2017/03/31,10:40,1.018,1.660,1.118,1.973,1.360,0.542,0.998,0.928,�k�k��,7.3,��
2017/03/31,10:50,1.022,1.660,1.119,1.973,1.362,0.543,0.999,0.928,�k��,6.4,��
2017/03/31,11:00,1.022,1.661,1.117,1.971,1.362,0.541,0.998,0.927,�k�k��,6.1,��
2017/03/31,11:10,1.021,1.662,1.119,1.971,1.362,0.543,0.998,0.929,�k�k��,5.9,��
2017/03/31,11:20,1.021,1.663,1.121,1.971,1.363,0.544,0.998,0.929,�k�k��,6.5,��
2017/03/31,11:30,1.021,1.664,1.120,1.971,1.360,0.543,0.999,0.929,�k�k��,6.1,��
2017/03/31,11:40,1.022,1.662,1.119,1.972,1.361,0.544,0.998,0.928,�k��,6.2,��
2017/03/31,11:50,1.023,1.659,1.119,1.973,1.362,0.544,0.999,0.929,�k�k��,5.4,��
2017/03/31,12:00,1.020,1.663,1.120,1.972,1.362,0.545,0.999,0.929,�k�k��,6.9,��
2017/03/31,12:10,1.022,1.662,1.120,1.974,1.362,0.543,0.998,0.927,�k�k��,7.2,��
2017/03/31,12:20,1.024,1.661,1.119,1.974,1.363,0.543,0.998,0.928,�k��,6.0,��
2017/03/31,12:30,1.023,1.664,1.118,1.977,1.362,0.545,0.998,0.930,�k�k��,4.4,��
2017/03/31,12:40,1.024,1.664,1.120,1.975,1.365,0.544,0.998,0.931,�k,5.2,��
2017/03/31,12:50,1.021,1.664,1.119,1.973,1.365,0.544,0.999,0.931,�k,5.8,��
2017/03/31,13:00,1.022,1.661,1.117,1.973,1.362,0.545,0.999,0.931,�k�k��,6.8,��
2017/03/31,13:10,1.023,1.664,1.118,1.976,1.364,0.544,0.997,0.930,�k�k��,7.0,��
2017/03/31,13:20,1.023,1.662,1.117,1.972,1.365,0.545,0.997,0.928,�k�k��,7.7,��
2017/03/31,13:30,1.023,1.664,1.118,1.977,1.362,0.543,0.998,0.928,�k�k��,7.9,��
2017/03/31,13:40,1.023,1.660,1.119,1.972,1.364,0.544,0.998,0.931,�k�k��,7.3,��
2017/03/31,13:50,1.022,1.660,1.119,1.975,1.364,0.543,0.999,0.930,�k,5.9,��
2017/03/31,14:00,1.025,1.662,1.121,1.976,1.366,0.545,0.996,0.931,�k�k��,5.9,��
2017/03/31,14:10,1.023,1.662,1.121,1.973,1.366,0.546,0.997,0.930,�k�k��,6.3,��
2017/03/31,14:20,1.022,1.667,1.121,1.978,1.364,0.543,0.998,0.929,�k��,7.6,��
2017/03/31,14:30,1.022,1.663,1.121,1.976,1.364,0.545,0.996,0.929,�k��,7.9,��
2017/03/31,14:40,1.022,1.664,1.120,1.975,1.362,0.545,0.996,0.930,���k��,7.5,��
2017/03/31,14:50,1.022,1.663,1.119,1.974,1.364,0.546,0.997,0.928,���k��,7.5,��
2017/03/31,15:00,1.023,1.663,1.119,1.973,1.366,0.543,0.998,0.930,���k��,9.0,��
2017/03/31,15:10,1.021,1.667,1.118,1.976,1.364,0.545,0.996,0.927,���k��,7.8,��
2017/03/31,15:20,1.020,1.665,1.117,1.973,1.366,0.544,0.997,0.930,�k��,7.7,��
2017/03/31,15:30,1.021,1.663,1.120,1.974,1.364,0.544,0.997,0.928,���k��,7.3,��
2017/03/31,15:40,1.019,1.662,1.119,1.974,1.366,0.544,0.996,0.930,���k��,6.3,��
2017/03/31,15:50,1.018,1.666,1.118,1.977,1.365,0.544,1.000,0.926,�k��,6.0,��
2017/03/31,16:00,1.018,1.665,1.119,1.972,1.364,0.544,0.996,0.930,�k��,6.2,��
2017/03/31,16:10,1.019,1.667,1.120,1.972,1.363,0.545,0.998,0.927,�k��,6.2,��
2017/03/31,16:20,1.021,1.666,1.120,1.975,1.365,0.543,0.998,0.927,���k��,5.7,��
2017/03/31,16:30,1.022,1.666,1.119,1.977,1.364,0.545,0.999,0.927,�k��,5.9,��
2017/03/31,16:40,1.018,1.663,1.118,1.974,1.364,0.545,0.998,0.927,�k��,6.3,��
2017/03/31,16:50,1.020,1.667,1.118,1.976,1.361,0.545,1.000,0.928,���k��,6.0,��
2017/03/31,17:00,1.021,1.661,1.120,1.974,1.361,0.543,0.996,0.929,�k��,6.1,��
2017/03/31,17:10,1.023,1.665,1.120,1.976,1.363,0.544,0.997,0.925,���k��,6.3,��
2017/03/31,17:20,1.019,1.664,1.120,1.973,1.361,0.544,0.999,0.928,���k��,6.4,��
2017/03/31,17:30,1.018,1.665,1.120,1.974,1.363,0.544,0.997,0.928,�k��,6.2,��
2017/03/31,17:40,1.021,1.664,1.118,1.974,1.360,0.543,0.999,0.928,�k��,6.2,��
2017/03/31,17:50,1.018,1.669,1.119,1.971,1.361,0.544,0.999,0.926,���k��,7.1,��
2017/03/31,18:00,1.018,1.665,1.120,1.975,1.361,0.544,0.998,0.926,���k��,5.5,��
2017/03/31,18:10,1.019,1.666,1.118,1.976,1.363,0.543,0.997,0.927,���k��,6.4,��
2017/03/31,18:20,1.021,1.661,1.119,1.973,1.364,0.544,0.999,0.930,���k��,6.0,��
2017/03/31,18:30,1.021,1.664,1.119,1.974,1.362,0.545,1.000,0.929,���k��,5.9,��
2017/03/31,18:40,1.023,1.663,1.120,1.975,1.364,0.543,1.000,0.927,�k��,5.7,��
2017/03/31,18:50,1.021,1.662,1.120,1.976,1.363,0.545,1.000,0.928,���k��,5.4,��
2017/03/31,19:00,1.023,1.666,1.118,1.974,1.366,0.544,0.998,0.928,�k��,4.5,��
2017/03/31,19:10,1.020,1.664,1.118,1.976,1.358,0.543,1.000,0.927,�k�k��,2.3,��
2017/03/31,19:20,1.020,1.662,1.118,1.973,1.364,0.542,0.999,0.925,�k�k��,1.4,��
2017/03/31,19:30,1.020,1.664,1.118,1.973,1.360,0.544,1.000,0.926,�k�k��,0.6,�L
2017/03/31,19:40,1.019,1.664,1.114,1.962,1.351,0.543,0.998,0.926,�k��,1.7,�L
2017/03/31,19:50,1.019,1.655,1.109,1.953,1.325,0.543,0.998,0.925,��,0.9,�L
2017/03/31,20:00,1.019,1.642,1.104,1.941,1.311,0.542,0.998,0.926,���k��,2.3,�L
2017/03/31,20:10,1.017,1.630,1.096,1.928,1.305,0.542,0.994,0.926,���k��,3.1,�L
2017/03/31,20:20,1.013,1.617,1.092,1.917,1.303,0.543,0.991,0.923,�k��,1.9,�L
2017/03/31,20:30,1.009,1.613,1.091,1.911,1.300,0.541,0.990,0.923,�k�k��,1.7,�L
2017/03/31,20:40,1.006,1.608,1.089,1.909,1.302,0.540,0.989,0.921,��,1.7,�L
2017/03/31,20:50,1.001,1.607,1.089,1.910,1.303,0.541,0.987,0.920,��,1.7,�L
2017/03/31,21:00,1.000,1.603,1.088,1.910,1.301,0.540,0.988,0.920,���k��,2.6,�L
2017/03/31,21:10,0.997,1.604,1.089,1.907,1.303,0.539,0.988,0.918,���k��,0.9,�L
2017/03/31,21:20,0.998,1.605,1.086,1.908,1.300,0.540,0.987,0.919,���k��,1.7,�L
2017/03/31,21:30,0.997,1.605,1.086,1.905,1.300,0.537,0.984,0.919,���k��,1.9,�L
2017/03/31,21:40,0.995,1.599,1.084,1.906,1.300,0.537,0.983,0.917,���k��,2.0,�L
2017/03/31,21:50,0.996,1.600,1.083,1.905,1.299,0.535,0.980,0.916,�k��,2.3,�L
2017/03/31,22:00,0.991,1.597,1.083,1.903,1.296,0.534,0.982,0.917,�k,2.2,�L
2017/03/31,22:10,0.992,1.599,1.083,1.899,1.295,0.534,0.982,0.915,�k��,3.1,�L
2017/03/31,22:20,0.991,1.598,1.081,1.899,1.295,0.534,0.985,0.917,�k��,3.0,�L
2017/03/31,22:30,0.990,1.600,1.083,1.900,1.295,0.532,0.980,0.915,�k��,3.5,�L
2017/03/31,22:40,0.990,1.599,1.080,1.900,1.297,0.532,0.983,0.916,�k��,3.0,�L
2017/03/31,22:50,0.989,1.597,1.081,1.901,1.296,0.533,0.983,0.915,�k��,4.1,�L
2017/03/31,23:00,0.991,1.600,1.080,1.902,1.299,0.533,0.983,0.916,�k��,4.0,�L
2017/03/31,23:10,0.989,1.597,1.080,1.901,1.299,0.532,0.983,0.917,�k�k��,4.3,�L
2017/03/31,23:20,0.987,1.598,1.079,1.900,1.294,0.530,0.983,0.914,�k�k��,5.1,�L
2017/03/31,23:30,0.986,1.595,1.078,1.894,1.296,0.533,0.982,0.916,�k�k��,5.2,�L
2017/03/31,23:40,0.984,1.594,1.077,1.895,1.292,0.531,0.982,0.916,�k�k��,4.4,�L
2017/03/31,23:50,0.982,1.589,1.074,1.887,1.291,0.531,0.981,0.912,�k�k��,3.7,�L
